128 visiteurs
Prévisions de votre ville :
Vigilance : 4 départements Mise à jour le 06/12/2019 à 16:10 - Voir la carte

Paris Roissy CDG (95380) le 07/12/2019 à 03:00 Choisir station

9.2°C 91 % OSO Rafales 28 km/h
Vit. moyenne 17 kmh/h

Relevés météo quotidiens pour la station de :

UTC
S: Synop
M: Metar
Loc T°C
(°C)
Td
(°C)
HR
(%)
Vis
(km)
Néb
(octa)
Vent
(km/h)
Pression
(mb)
Précipitations
(mm)
Temps
              MOY
10 min
DIR RAF 1h MESURE VAR SUR 3h    
S 00 h 02h 20.5 8.8 47 60 - 31 57 1016.3 +0.4/3h 0.0/6h - 0.0/3h -
S 01 h 03h 20.4 8.4 46 60 - 41 61 1015.5 -0.6/3h 0.0/1h -
S 02 h 04h 20.0 7.7 45 60 - 39 65 1015.2 -0.9/3h 0.0/1h -
S 03 h 05h 19.6 7.7 46 60 - 31 59 1015.1 -1.2/3h 0.0/3h -
S 04 h 06h 19.4 7.5 46 60 - 30 52 1014.6 -0.9/3h 0.0/1h -
S 05 h 07h 19.3 7.1 45 19 8/8 31 46 1015.5 +0.3/3h 0.0/1h
S 06 h 08h 19.9 6.9 43 19 7/8 31 46 1015.8 +0.7/3h 0.0/12h - 0.0/3h - 0.0/24h
S 07 h 09h 21.3 7.5 41 15 - 31 56 1015.8 +1.2/3h 0.0/1h -
S 08 h 10h 22.7 7.3 37 11 - 35 52 1015.9 +0.4/3h 0.0/1h -
S 09 h 11h 24.1 7.7 35 8 - 37 54 1016.1 +0.3/3h 0.0/3h -
S 10 h 12h 25.7 6.8 30 8 - 37 56 1015.9 +0.1/3h 0.0/1h -
S 11 h 13h 27.2 6.6 27 9 - 37 56 1015.7 -0.2/3h 0.0/1h -
S 12 h 14h 28.7 3.5 20 8 - 35 52 1015.3 -0.7/3h 0.0/6h - 0.0/3h -
S 13 h 15h 30.1 3.9 19 6 - 37 52 1014.8 -1.0/3h 0.0/1h -
S 14 h 16h 30.2 4.7 20 7 - 26 48 1014.3 -1.3/3h 0.0/1h -
S 15 h 17h 30.6 5.1 20 8 - 26 43 1014.0 -1.3/3h 0.0/3h -
S 16 h 18h 29.2 9.8 30 11 - 24 41 1013.9 -0.9/3h 0.0/1h -
S 17 h 19h 29.1 8.7 28 13 - 22 44 1013.9 -0.4/3h 0.0/1h -
S 18 h 20h 27.8 10.5 34 45 - 17 30 1014.2 +0.2/3h 0.0/12h - 0.0/3h -
S 19 h 21h 25.0 12.2 45 60 - 7 19 1014.6 +0.6/3h 0.0/1h -
S 20 h 22h 25.5 8.0 33 60 - 9 17 1015.3 +1.3/3h 0.0/1h -
S 21 h 23h 24.8 7.0 32 60 - 19 31 1015.5 +1.2/3h 0.0/3h -
S 22 h 00h 21.8 6.8 38 60 - 17 20 1015.8 +1.2/3h 0.0/1h -
S 23 h 01h 21.0 7.6 42 60 - 11 20 1016.1 +0.8/3h 0.0/1h -
evolution des temperatures
cumul des precipitations
vent moyen et rafales
pression atmospherique

Un tiret (-) signifie que les données ne sont pas disponibles.

Passez la souris sur les pictos temps pour avoir plus de précisions. Passez les flèches sur l'icône de la direction du vent pour voir la direction précise en degrés.

Les données de l'heure en cours sont disponibles à partir de H+15 minutes.


S signifie station Synop, plus complète qu'une station Metar (M). Il y a +1h de différence entre l'heure UTC et l'heure légale en hiver et +2h en été.

Td est la mesure du point de rosée.

HR est l'humidité relative/p>

Vis est la visibilité

Néb est la nébulosité du ciel (couverture nuageuse) exprimée en octas (de 0/8 à 8/8).

Vent moy 10 min donne le vent moyen sur les 10 minutes qui précèdent le relevé.

Vent raf 1h donne la rafale maximale mesurée dans l'heure qui précède le relevé.


Les données les plus anciennes remontent à avril 2014.

Les données présentées sur cette page proviennent des stations météo officielles. Les relevés sont effectués aux normes en vigueur (anémomètre à 10m de haut, thermomètre sous abri normalisé à 2m du sol...)

Météo 60 décline toute responsabilité en cas d'absence de données, d'erreurs, de mauvaise utilisation ou interprétation et n'est pas habilité à fournir des certificats intempéries.